Вернуться в каталог

TAIZHOU

АктивенСвязьSSO
NORAD 63986·PAYLOAD·🇨🇳 China
Это название спутника еще не подтверждено официальными источниками.

Запущен May 14, 2025 с Jiuquan Satellite Launch Center

Loading…

Ближайшие Пролёты (ближайшие 24 часа)

TLE

СвежийSource: Space-Track

Эпоха: Sep 14, 2026, 20:52 UTC

1 63986U 25100E   26257.86996346  .00012163  00000-0  54340-3 0  9995
2 63986  97.3551 328.5469 0010041  17.4603 342.6977 15.21439171 44086

Отслеживайте TAIZHOU в реальном времени с AllMySat

Download on the App Store